This demonstration page uses our WeatherBlox Daily Observations layout. Learn more.

Left ArrowRight Arrow

41.86663, -103.66717

Hourly Observations for May 28, 2022

Temp ( °F °C ) Dew Point ( °F °C ) Humidity (%) Winds ( mph kmh ) Pressure ( in mb ) Visibility ( mi km ) Precip ( " mm )
12:53 am 00:53 Clear 58 14.4 43 6.1 58 58 ENE 9 15 29.67 1005 10 16 0.00 0.00
1:53 am 01:53 Clear 56 13.3 43 6.1 62 62 W 3 6 29.68 1005 10 16 0.00 0.00
2:53 am 02:53 Clear 50 10 41 5 71 71 NNW 5 7 29.66 1005 10 16 0.00 0.00
3:53 am 03:53 Clear 48 8.9 41 5 77 77 N 5 7 29.66 1005 10 16 0.00 0.00
4:53 am 04:53 Clear 51 10.6 42 5.6 71 71 NE 3 6 29.63 1004 10 16 0.00 0.00
5:53 am 05:53 Sunny 54 12.2 45 7.2 72 72 E 5 7 29.61 1003 10 16 0.00 0.00
6:53 am 06:53 Sunny 59 15 49 9.4 69 69 Calm 29.60 1003 10 16 0.00 0.00
7:53 am 07:53 Sunny 60 15.6 48 8.9 65 65 Calm 29.60 1002 10 16 0.00 0.00
8:53 am 08:53 Sunny 68 20 49 9.4 51 51 SE 8 13 29.59 1002 10 16 0.00 0.00
9:53 am 09:53 Sunny 74 23.3 50 10 43 43 SE 12 19 29.53 1000 10 16 0.00 0.00
10:53 am 10:53 Sunny 75 23.9 47 8.3 37 37 SE 8 13 29.52 1000 10 16 0.00 0.00
11:53 am 11:53 Sunny 77 25 49 9.4 37 37 SE 13 20 29.51 999 10 16 0.00 0.00
12:53 pm 12:53 Sunny 80 26.7 48 8.9 33 33 E 14 22 29.47 998 10 16 0.00 0.00
1:53 pm 13:53 Sunny 82 27.8 48 8.9 31 31 ESE 16 26 29.44 997 10 16 0.00 0.00
2:53 pm 14:53 Sunny 84 28.9 47 8.3 27 27 ENE 7 11 29.43 997 10 16 0.00 0.00
3:53 pm 15:53 Sunny 85 29.4 40 4.4 20 20 Calm 29.42 996 10 16 0.00 0.00
4:53 pm 16:53 Mostly Sunny 84 28.9 33 0.6 16 16 WSW 16 26 29.41 996 10 16 0.00 0.00
5:53 pm 17:53 Sunny 81 27.2 35 1.7 19 19 W 12 19 29.41 996 10 16 0.00 0.00
6:53 pm 18:53 Sunny 80 26.7 33 0.6 18 18 W 13 20 29.38 995 10 16 0.00 0.00
7:53 pm 19:53 Sunny 73 22.8 35 1.7 25 25 W 8 13 29.39 995 10 16 0.00 0.00
8:53 pm 20:53 Clear 74 23.3 33 0.6 22 22 WNW 14 22 29.38 995 10 16 0.00 0.00
9:53 pm 21:53 Clear 70 21.1 37 2.8 30 30 W 10 17 29.41 996 10 16 0.00 0.00
10:53 pm 22:53 Clear 66 18.9 40 4.4 39 39 NW 12 19 29.42 996 10 16 0.00 0.00
11:53 pm 23:53 Clear 56 13.3 40 4.4 55 55 NW 9 15 29.44 997 10 16 0.00 0.00

Powered by AerisWeather